Temperature
18 19 18 18 18 18 18 18 19 19 19 19 19 19 19 18 18 18 17 17 18 18 18 18 18 18 18 18 18 18 17 17 17 17 18 18 18 18 18 18 17 17 17
19 19 19 19 18 19 19 19 19 19 19 19 19 19 19 18 18 17 17 17 17 17 17 17 17 18 18 18 18 17 17 17 17 17 17 17 17 17 17 17 17 17 17
19 19 19 19 19 19 19 19 19 19 19 18 18 18 18 18 18 17 17 17 17 17 17 17 17 17 17 17 17 17 17 17 17 17 17 17 17 17 17 17 17 17 17
19 19 19 19 19 19 19 19 19 19 18 18 18 18 18 18 18 18 18 17 17 17 17 17 17 17 17 17 17 17 17 17 17 17 17 17 17 17 17 17 17 17 17
19 19 19 19 19 19 18 18 18 18 18 18 18 18 18 18 18 18 18 18 17 17 17 17 17 17 17 17 17 17 17 17 17 17 16 16 17 17 17 17 16 16 16
19 19 19 18 18 18 18 18 18 18 18 18 18 18 18 18 18 18 18 18 18 17 17 17 17 17 17 17 17 17 17 17 17 16 16 16 17 17 17 16 16 16 16
19 19 18 18 18 18 18 18 18 17 17 17 17 18 18 18 18 18 18 18 18 18 17 17 17 17 17 17 17 17 17 17 16 16 16 16 16 16 16 16 16 16 16
18 18 18 18 18 18 17 17 17 17 17 17 17 17 17 18 18 18 18 18 18 18 18 17 17 17 17 17 17 17 17 16 16 16 16 16 16 16 16 16 16 16 16
18 18 18 18 18 17 17 17 17 17 17 17 17 17 16 17 18 18 18 18 18 18 18 17 17 17 17 16 16 16 16 16 16 16 16 16 16 16 16 16 16 16 16
18 18 18 17 17 17 17 17 17 17 17 17 17 17 16 17 17 17 18 18 18 18 17 17 17 17 17 16 16 16 16 16 16 16 16 16 16 16 16 16 16 15 15
17 17 17 17 17 17 17 17 17 16 16 16 16 16 16 16 16 16 17 17 17 17 17 17 17 17 17 16 16 16 16 16 16 16 16 16 16 16 16 16 16 16 15
17 17 17 17 17 17 17 16 16 16 16 16 16 16 16 16 16 16 16 16 17 17 17 17 17 17 16 16 16 16 16 16 16 16 16 16 16 16 16 16 16 16 16
17 17 16 16 16 16 16 16 16 16 16 16 16 16 16 16 16 16 16 16 16 16 16 16 16 16 16 16 16 16 16 16 16 16 16 16 16 16 16 16 16 16 16
16 16 16 16 16 16 16 16 16 16 16 16 16 15 15 15 15 15 15 15 15 16 16 16 16 16 16 16 16 16 16 16 16 16 16 16 16 16 16 16 16 16 16
14 15 15 15 15 16 16 16 16 16 15 15 15 15 15 15 15 15 15 15 15 15 15 16 16 16 15 15 15 15 15 15 15 15 16 16 16 16 16 16 16 16 15
14 14 15 15 16 16 16 16 16 16 15 15 15 15 15 15 14 14 14 14 14 14 15 15 15 15 15 15 15 15 15 15 15 15 15 15 16 16 16 16 16 16 15
14 15 15 15 15 16 16 16 16 15 15 15 15 15 15 14 14 14 14 14 14 14 14 15 15 15 15 15 15 15 15 15 15 15 15 15 15 16 16 16 16 15 15
15 15 15 15 16 16 16 16 16 15 15 15 15 15 15 15 14 14 14 14 14 14 14 14 14 14 14 14 14 14 14 14 15 15 15 15 15 15 16 16 15 15 15
15 15 15 15 16 16 16 16 16 15 15 15 15 15 15 15 15 14 14 14 14 14 14 14 14 14 14 14 14 14 14 14 14 14 15 15 16 15 15 15 15 15 15
15 15 15 15 16 16 16 16 16 16 15 16 15 15 15 15 15 14 14 14 14 14 14 14 14 14 14 14 14 14 14 14 14 14 14 15 16 15 15 15 15 15 15
15 15 15 15 15 15 16 16 16 15 16 16 16 15 15 15 15 15 14 14 14 14 14 14 14 14 14 14 14 14 14 14 14 14 14 14 15 15 15 15 15 15 15
14 14 15 15 15 15 15 16 15 15 15 15 15 15 15 15 15 15 15 14 14 14 14 14 13 13 13 13 13 13 13 13 13 14 14 14 14 14 14 14 15 15 15
13 14 14 14 14 14 15 15 15 15 15 15 15 15 15 15 15 15 15 14 14 14 14 14 13 13 13 13 13 13 13 13 13 13 13 13 13 13 13 13 14 14 14
12 12 13 13 13 13 14 14 14 15 15 15 15 15 15 14 14 14 14 14 14 14 14 14 14 13 13 13 13 13 13 13 13 13 13 13 13 13 13 13 13 13 13
11 12 12 12 12 12 13 13 14 14 14 14 14 14 14 14 14 15 14 14 14 14 14 14 14 13 13 13 13 13 13 12 12 12 12 12 12 12 12 12 12 12 12
11 11 11 11 11 12 12 12 13 13 13 13 13 13 13 14 14 14 14 14 14 14 14 14 14 13 13 13 13 13 12 12 12 12 12 12 12 12 12 12 12 12 12
Wind_Speed
5 4 4 8 9 10 6 4 5 2 2 5 5 6 5 5 7 12 10 9 6 4 2 3 2 2 2 1 2 3 4 5 5 5 5 5 5 5 4 4 3 3 3
4 4 4 3 3 5 8 6 3 3 1 3 4 4 4 4 6 11 12 10 7 6 4 3 3 2 2 2 2 3 4 5 5 5 5 5 5 4 4 4 4 3 2
6 4 4 5 3 5 6 4 1 3 3 3 2 0 3 4 2 8 12 12 10 7 6 5 4 3 3 3 3 3 4 4 4 5 5 4 5 5 4 4 4 4 3
9 5 2 4 4 4 2 2 2 2 2 2 2 2 3 2 3 3 8 12 13 10 8 6 6 5 5 5 5 4 4 4 3 3 3 3 3 4 4 4 4 4 5
9 6 3 2 3 2 1 2 1 1 1 1 0 1 1 2 2 3 4 9 12 14 12 9 8 7 6 6 5 5 4 4 4 3 3 4 3 3 3 4 4 4 5
6 6 4 2 2 3 1 1 0 1 1 1 3 2 2 1 2 3 1 4 8 13 15 13 11 9 8 7 5 5 4 5 4 3 3 3 3 3 4 5 5 5 4
4 5 5 3 3 3 2 1 1 1 1 2 2 3 3 4 5 4 2 2 3 9 14 14 13 12 9 9 7 6 5 5 4 3 3 3 3 3 4 4 4 4 4
4 4 5 4 3 2 2 2 1 0 1 2 1 1 3 4 4 3 3 3 3 4 5 10 13 13 13 11 10 9 7 6 5 4 3 3 2 3 3 3 3 3 2
4 3 3 4 4 4 4 4 4 5 4 4 4 3 3 4 2 4 5 5 4 3 4 3 7 14 14 14 13 11 9 7 5 4 4 3 3 3 3 2 2 1 2
4 4 3 3 4 4 5 6 6 5 6 6 5 5 5 4 3 2 3 3 5 5 4 2 1 2 11 14 15 15 11 8 5 5 5 5 5 4 4 3 3 3 3
3 3 2 2 3 3 5 6 5 5 6 6 5 4 4 3 4 4 3 4 2 2 3 2 2 1 5 14 16 16 14 10 7 6 5 5 5 5 4 4 3 2 2
3 2 1 0 2 2 3 4 4 5 5 6 5 4 3 3 3 3 4 4 3 3 3 3 3 3 4 10 13 18 16 12 9 7 6 5 5 5 4 4 3 2 2
3 3 1 1 2 2 2 1 2 3 5 5 5 4 3 3 2 2 2 3 3 3 1 2 3 4 6 8 11 19 17 15 12 10 8 7 6 5 4 4 4 3 2
2 1 1 2 2 2 1 1 0 3 3 3 4 4 3 3 3 3 3 3 2 3 3 3 2 3 6 9 14 20 16 17 15 14 12 10 9 7 6 6 5 4 3
2 1 3 3 3 3 2 1 2 3 2 1 1 1 2 2 2 3 3 4 4 4 5 5 2 2 4 6 11 17 14 18 19 17 16 14 12 11 9 8 7 5 4
1 1 3 5 5 5 4 2 1 1 2 0 1 1 3 2 2 3 3 3 4 5 4 3 3 2 1 3 9 13 14 19 22 21 19 17 15 14 12 11 10 8 7
0 2 4 4 5 7 7 5 3 3 2 3 4 5 5 4 2 3 3 3 4 4 5 4 3 2 2 3 2 6 9 10 15 21 22 20 19 17 15 14 12 11 10
3 4 4 5 5 6 6 7 6 4 4 4 3 2 3 3 4 3 3 4 4 4 4 4 3 3 4 3 2 3 5 8 11 19 24 22 21 20 18 17 15 14 13
5 5 5 6 4 3 4 5 6 6 6 5 4 2 2 1 2 2 3 3 3 3 3 3 3 3 3 2 2 3 5 5 8 11 20 22 22 21 20 20 19 18 16
5 6 5 4 2 1 1 1 3 5 4 4 3 3 1 3 4 3 1 1 0 0 1 2 2 2 3 2 2 3 4 4 5 5 9 14 18 21 21 21 20 20 20
5 6 6 6 6 5 7 7 6 3 3 2 2 3 4 7 6 4 3 3 3 1 0 0 1 1 1 2 2 3 4 3 4 4 3 5 7 9 13 18 20 21 21
8 8 9 9 10 9 12 13 9 7 6 5 3 1 6 7 7 6 4 3 2 1 2 1 1 1 2 2 2 2 2 2 3 2 1 3 2 4 5 8 13 19 21
9 9 9 9 9 11 15 14 12 7 6 6 5 3 1 4 7 6 7 7 6 6 4 0 1 1 1 1 1 1 2 2 2 1 1 2 2 1 2 3 4 5 11
7 7 8 7 7 10 16 15 14 7 6 6 5 5 3 1 2 1 1 3 4 5 6 3 2 3 3 3 2 0 0 0 1 1 1 1 2 1 1 2 3 3 4
6 6 6 7 7 8 14 16 14 6 5 5 4 3 4 5 7 5 3 3 3 3 5 7 7 6 5 3 3 2 2 1 1 1 1 1 2 2 2 1 1 1 3
6 5 5 5 6 7 11 15 14 6 6 5 4 4 7 6 6 5 4 4 4 3 3 3 3 2 2 2 0 1 1 1 1 1 0 0 1 2 3 2 1 2 3
Wind_Direction
210 167 180 172 186 187 170 246 253 192 54 52 30 45 74 89 98 115 129 136 134 134 149 166 154 140 132 139 153 156 154 158 160 158 157 157 155 152 148 145 141 126 109
204 147 194 145 209 167 170 221 230 106 68 66 44 39 23 74 119 130 142 145 144 139 137 144 148 138 140 158 168 175 169 173 178 180 182 186 188 188 181 179 177 165 152
189 156 201 154 207 186 187 227 200 118 114 112 144 37 75 22 14 129 145 154 152 140 130 126 125 124 124 122 128 145 154 166 178 189 194 202 208 204 199 192 187 192 200
182 166 179 147 186 175 184 118 40 77 125 183 185 186 158 151 260 140 162 157 155 146 137 132 130 125 121 117 114 117 126 138 147 159 169 177 185 192 199 202 212 221 225
179 148 134 139 163 131 130 132 176 175 200 198 178 149 274 183 178 238 203 153 149 151 146 142 138 133 131 127 125 126 128 130 130 135 145 155 171 196 214 227 237 241 236
157 133 126 140 127 119 87 26 94 65 17 327 285 251 216 254 235 249 282 138 162 159 156 158 156 151 146 138 133 137 142 142 139 143 152 162 181 207 232 243 246 245 238
130 116 125 122 96 107 124 275 348 323 298 314 315 324 306 258 252 207 210 251 209 156 159 167 172 164 157 147 139 136 135 144 144 146 155 168 188 206 227 243 246 240 236
161 143 141 144 144 147 180 235 251 288 293 275 233 257 307 316 289 250 202 211 267 162 186 184 174 167 167 157 151 139 126 128 135 138 138 137 149 181 209 231 238 232 202
149 151 152 159 174 177 197 216 221 214 226 254 249 205 196 234 281 292 237 201 217 207 204 216 185 178 168 157 150 142 134 127 131 139 143 140 141 139 145 162 160 155 151
153 159 169 175 193 195 200 215 220 215 215 231 249 243 225 209 186 282 303 244 207 205 201 202 227 166 154 145 153 153 150 145 144 152 147 139 134 131 130 131 134 135 141
134 152 174 195 216 207 213 223 228 213 212 221 230 239 246 256 232 212 261 296 286 210 185 193 172 217 154 145 152 161 162 161 160 166 166 157 147 139 134 135 133 134 147
94 80 85 270 273 243 229 228 216 215 219 226 234 231 225 228 234 225 226 248 267 264 204 192 181 186 169 154 164 167 168 171 175 176 177 176 171 166 164 164 163 164 166
110 112 136 214 263 260 245 218 216 223 222 221 225 230 221 225 229 220 225 243 248 270 254 207 190 181 185 167 162 170 175 180 186 190 191 191 190 187 190 194 196 204 223
115 133 184 223 232 245 271 235 257 259 242 227 224 223 209 232 225 210 207 213 240 255 245 240 214 197 206 194 182 181 186 190 193 198 200 201 201 203 205 208 211 218 233
137 187 214 219 210 200 246 259 190 265 235 247 272 277 227 232 230 233 217 196 195 223 238 229 211 221 214 214 195 192 191 197 200 203 205 206 208 209 211 213 213 216 224
154 201 226 221 201 184 199 225 291 336 358 263 143 287 268 245 236 232 229 222 206 206 233 235 214 217 203 233 199 197 207 205 205 206 207 209 211 214 216 218 218 220 226
344 273 264 250 205 191 190 170 217 215 255 266 213 213 221 220 216 229 226 223 220 204 223 244 220 208 201 246 213 237 239 205 205 210 210 211 212 215 218 221 222 224 229
295 278 269 269 236 193 182 172 191 190 224 258 270 243 224 194 201 220 216 225 223 215 213 237 226 212 217 222 219 258 263 232 209 214 213 213 213 215 218 222 225 227 230
281 271 266 266 255 199 192 178 180 200 217 221 221 240 268 160 187 200 201 217 219 227 214 223 231 217 228 231 230 248 262 270 257 228 214 215 217 217 220 223 227 229 232
284 284 277 280 280 228 236 233 215 208 223 222 195 188 184 77 61 39 55 41 67 254 242 234 240 227 224 226 213 231 253 257 264 260 219 215 218 222 225 227 229 231 234
347 350 1 10 19 26 27 18 357 332 291 260 225 186 126 110 101 80 61 38 31 6 325 257 277 261 227 204 220 225 239 254 262 258 243 217 207 216 226 234 236 237 236
20 18 23 38 41 33 24 22 8 343 333 321 298 173 147 154 155 159 166 178 166 47 38 23 349 324 295 248 232 227 241 254 271 285 270 271 206 220 230 223 236 236 237
37 33 32 40 46 34 24 14 5 334 308 307 313 309 230 156 160 187 199 209 216 208 201 243 17 32 23 350 302 254 242 238 248 317 24 306 335 306 307 341 344 256 241
47 43 34 37 45 35 21 9 354 320 291 292 299 303 307 130 142 82 167 222 213 186 195 194 84 78 72 52 52 40 278 266 12 11 49 299 331 310 330 350 3 346 288
43 55 40 33 36 32 20 10 359 325 324 312 309 346 30 62 52 43 2 349 51 107 121 109 99 100 95 72 42 44 44 39 349 323 57 10 334 325 316 307 304 309 301
30 50 52 39 38 31 23 16 8 354 353 348 352 42 64 74 69 45 15 24 35 33 110 132 131 146 180 171 220 349 56 38 358 339 141 127 325 344 334 312 281 277 291
Height
1549 1551 1551 1551 1552 1553 1555 1556 1557 1559 1560 1561 1562 1562 1562 1563 1563 1561 1561 1560 1560 1560 1560 1561 1561 1562 1562 1563 1564 1564 1566 1567 1568 1569 1570 1571 1572 1572 1573 1574 1574 1575 1575
1548 1550 1551 1552 1553 1555 1555 1556 1557 1558 1559 1560 1561 1562 1562 1563 1562 1561 1561 1560 1560 1560 1560 1560 1561 1561 1562 1562 1563 1564 1565 1566 1567 1568 1569 1570 1571 1572 1572 1573 1573 1574 1574
1547 1548 1550 1550 1552 1554 1555 1556 1557 1558 1559 1559 1560 1561 1562 1562 1562 1561 1560 1560 1560 1560 1560 1560 1561 1561 1561 1562 1562 1563 1564 1565 1566 1567 1568 1569 1570 1570 1571 1571 1572 1572 1573
1545 1547 1549 1549 1551 1553 1554 1555 1556 1557 1558 1559 1560 1560 1561 1561 1561 1561 1560 1559 1559 1559 1560 1560 1560 1560 1561 1561 1561 1562 1563 1564 1564 1565 1566 1567 1568 1569 1569 1570 1571 1571 1571
1543 1544 1546 1548 1549 1551 1552 1554 1555 1556 1557 1558 1559 1559 1560 1561 1561 1561 1561 1560 1559 1559 1559 1559 1559 1559 1560 1560 1561 1561 1562 1562 1563 1564 1565 1565 1566 1567 1568 1568 1569 1569 1569
1541 1542 1543 1546 1547 1549 1550 1552 1553 1554 1555 1556 1558 1558 1559 1559 1560 1560 1561 1560 1559 1558 1558 1559 1559 1559 1559 1559 1560 1560 1561 1561 1562 1563 1563 1564 1564 1565 1565 1566 1566 1567 1567
1537 1538 1540 1543 1544 1546 1548 1550 1551 1552 1554 1555 1556 1556 1557 1557 1558 1558 1559 1559 1560 1558 1558 1558 1558 1559 1559 1559 1559 1559 1560 1560 1561 1561 1562 1562 1562 1562 1563 1564 1564 1565 1566
1533 1535 1537 1539 1541 1543 1545 1547 1548 1549 1551 1552 1553 1554 1555 1556 1555 1556 1556 1557 1558 1558 1558 1558 1557 1557 1558 1558 1558 1559 1559 1559 1560 1560 1561 1561 1561 1561 1562 1562 1563 1563 1564
1529 1531 1533 1535 1538 1540 1542 1544 1545 1546 1547 1549 1550 1552 1552 1552 1553 1553 1554 1554 1555 1556 1556 1557 1558 1557 1556 1556 1557 1558 1558 1559 1559 1560 1560 1560 1560 1560 1561 1561 1562 1562 1563
1525 1527 1530 1532 1534 1536 1538 1540 1541 1542 1543 1544 1546 1548 1549 1550 1551 1550 1551 1552 1553 1554 1554 1555 1556 1557 1556 1555 1555 1557 1557 1558 1558 1558 1559 1559 1559 1560 1560 1560 1561 1561 1561
1520 1523 1526 1528 1530 1532 1534 1536 1537 1538 1540 1541 1542 1544 1545 1546 1547 1548 1549 1550 1550 1551 1552 1552 1553 1554 1555 1553 1553 1554 1556 1556 1556 1557 1557 1558 1558 1559 1559 1559 1559 1560 1559
1515 1518 1522 1524 1527 1528 1530 1532 1534 1535 1537 1538 1539 1540 1541 1542 1543 1544 1545 1546 1547 1548 1548 1549 1550 1551 1552 1552 1551 1552 1553 1554 1554 1555 1555 1556 1557 1557 1557 1558 1558 1558 1558
1511 1514 1517 1521 1523 1525 1527 1529 1531 1533 1534 1535 1536 1537 1538 1538 1540 1541 1541 1542 1543 1544 1545 1545 1546 1548 1548 1549 1549 1550 1550 1551 1552 1553 1553 1554 1555 1555 1555 1556 1556 1556 1556
1509 1511 1514 1518 1521 1523 1525 1527 1529 1531 1532 1532 1533 1533 1534 1535 1536 1537 1538 1539 1539 1540 1541 1542 1543 1544 1544 1545 1546 1546 1547 1548 1549 1550 1551 1551 1552 1553 1553 1553 1554 1554 1553
1507 1509 1513 1516 1519 1521 1524 1526 1527 1528 1529 1530 1530 1531 1531 1531 1532 1533 1533 1535 1536 1536 1537 1538 1538 1539 1540 1542 1542 1543 1544 1545 1546 1547 1548 1548 1549 1550 1550 1551 1551 1551 1551
1506 1509 1512 1515 1518 1520 1522 1524 1525 1526 1527 1528 1528 1528 1528 1529 1529 1529 1530 1530 1531 1532 1533 1533 1534 1535 1536 1537 1538 1540 1541 1542 1543 1544 1545 1546 1546 1547 1547 1548 1549 1549 1549
1507 1509 1511 1514 1516 1518 1521 1522 1523 1525 1525 1526 1526 1526 1526 1527 1527 1527 1526 1527 1527 1528 1528 1529 1531 1531 1532 1533 1534 1535 1537 1538 1539 1540 1542 1542 1543 1544 1544 1545 1546 1546 1546
1507 1509 1511 1513 1516 1518 1520 1521 1522 1523 1523 1524 1525 1526 1526 1525 1525 1525 1524 1524 1524 1524 1525 1525 1526 1527 1528 1529 1530 1531 1532 1534 1535 1536 1537 1538 1539 1540 1541 1542 1542 1543 1543
1509 1510 1511 1512 1515 1517 1518 1520 1521 1521 1522 1523 1524 1524 1525 1524 1524 1523 1522 1522 1522 1522 1522 1522 1522 1523 1524 1525 1526 1527 1528 1529 1531 1532 1533 1534 1535 1536 1537 1538 1539 1539 1540
1509 1510 1510 1511 1513 1514 1516 1517 1519 1520 1521 1522 1522 1523 1523 1523 1522 1522 1521 1521 1520 1520 1520 1520 1520 1520 1520 1521 1521 1522 1523 1525 1526 1527 1528 1529 1530 1531 1532 1533 1534 1535 1535
1508 1508 1508 1509 1510 1511 1512 1514 1515 1517 1519 1520 1520 1521 1521 1521 1521 1520 1520 1520 1519 1519 1519 1518 1518 1518 1518 1518 1518 1519 1519 1520 1521 1522 1523 1524 1525 1526 1527 1528 1529 1529 1530
1508 1508 1508 1508 1508 1508 1509 1511 1513 1514 1516 1517 1518 1519 1519 1519 1519 1519 1519 1520 1519 1519 1518 1518 1517 1517 1517 1516 1516 1516 1516 1516 1517 1519 1519 1520 1521 1521 1522 1522 1523 1524 1525
1508 1507 1507 1507 1507 1507 1507 1508 1509 1511 1512 1514 1515 1516 1516 1517 1517 1517 1518 1519 1519 1518 1518 1518 1517 1516 1516 1515 1514 1514 1513 1514 1514 1515 1516 1516 1517 1517 1518 1518 1518 1519 1520
1509 1508 1507 1507 1506 1506 1506 1506 1506 1507 1508 1510 1511 1512 1513 1514 1515 1516 1517 1518 1518 1518 1517 1517 1517 1516 1516 1515 1514 1514 1513 1513 1513 1513 1513 1513 1514 1514 1514 1514 1514 1515 1515
1511 1510 1509 1508 1507 1506 1505 1504 1504 1504 1505 1507 1508 1509 1510 1511 1513 1514 1516 1517 1517 1517 1517 1517 1517 1516 1516 1515 1514 1514 1513 1513 1513 1513 1513 1513 1512 1512 1512 1512 1512 1512 1512
1513 1512 1511 1509 1508 1506 1505 1504 1503 1503 1504 1504 1505 1506 1507 1509 1511 1512 1514 1515 1515 1516 1516 1517 1517 1516 1516 1516 1515 1515 1514 1514 1514 1513 1513 1513 1512 1512 1511 1511 1511 1511 1510